Погода в Яблонове

Украина / Тернопольская область     49°08′46″N   25°51′13″E
темп.,
°C
ветер,
м/с
пор.,
м/с
влажн.,
%
обл.,
%
осадки,
мм/ч
давл.,
гПа
погр.,
м
3 августа, вт
вт300:00+13сз22931 0.0 101524
03:00+13з34925 0.0 101669
06:00+13зсз229433 0.0 101535
09:00+18сз34735 0.0 1016429
12:00+21зсз335911 0.3 10161321
15:00+23зсз345127 1.1 10161869
18:00+22ссз345478 0.0 1015802
21:00+18всв11645 0.0 101611
4 августа, ср
ср400:00+16ю22737 0.1 101712
03:00+14вюв118444 0.4 101711
06:00+13вюв229346 0.9 101719
09:00+18юв4781100 0.9 1017306
12:00+23ююв5560100 0.0 1016757
15:00+25ююв445081 0.0 10141027
18:00+24юв2458100 0.0 1013217
21:00+17юв497882 1.5 1013142
5 августа, чт
чт500:00+18ююв41084100 0.0 1013174
03:00+19ю41284100 0.0 1011294
06:00+19ююв3481100 0.0 101075
09:00+21ююв467696 0.0 1009302
12:00+27ю3448100 0.0 1008704
15:00+29ююв564151 0.0 10061555
18:00+28в5951100 0.0 10031074
21:00+19вюв2397100 17.3 100481
6 августа, пт
пт600:00+18ююз49961 0.0 1004203
03:00+17ю41094100 0.0 1003214
06:00+16юз359246 0.0 1004105
09:00+19сз458086 0.0 1005394
12:00+22зсз446670 0.0 1005902
15:00+23зсз556699 0.6 10051148
18:00+20зсз677154 2.1 1006952
21:00+16зсз488530 2.2 1008309
7 августа, сб
сб700:00+14з379776 0.0 1010205
03:00+13зсз39965 0.0 1010267
06:00+12зсз26961 0.0 1011138
09:00+17зсз45780 0.0 1012462
12:00+21зсз45610 0.0 10121190
15:00+24зсз46511 0.0 10121686
18:00+24сз34531 0.0 10121329
21:00+19всв11725 0.0 101411